Lake Charles, LA

11:23 PM CST on November 11, 2019 (GMT -0600)
Chennault International

Weather History for KCWF - October, 2019

Change the Weather History Date:

Wednesday, October 16, 2019

  Actual Average Record
Temperature  
Mean Temperature 68 °F -  
Max Temperature 76 °F 77 °F 91 °F (2015)
Min Temperature 58 °F 62 °F 51 °F (2001)
Cooling Degree Days 2    
Growing Degree Days 18 (Base 50)    
Moisture  
Dew Point 65 °F    
Average Humidity 91    
Maximum Humidity 99    
Minimum Humidity 73    
Precipitation  
Precipitation 0.01 in - - ()
Sea Level Pressure  
Sea Level Pressure 29.98 in    
Wind  
Wind Speed 4 mph ()    
Max Wind Speed 17 mph    
Max Gust Speed 38 mph    
Visibility 8.2 miles    
Events Rain , Thunderstorm    
Averages and records for this station are not official NWS values.
T = Trace of Precipitation, MM = Missing Value Source: Averaged Metar Reports

Daily Weather History Graph

Daily Weather History Graph

Search for Another Location

Airport or City:

Astronomy

Oct. 16, 2019 Rise Set
Actual Time 7:15 AM CDT 6:40 PM CDT
Civil Twilight 6:50 AM CDT 7:04 PM CDT
Nautical Twilight 6:23 AM CDT 7:32 PM CDT
Astronomical Twilight 5:55 AM CDT 8:00 PM CDT
Moon 8:44 PM CDT (10/16) 9:38 AM CDT (10/16)
Length of Visible Light 12h 13m
Length of Day
11h 25m
Waning Gibbous, 92% of the Moon is Illuminated
Oct 16
Waning Gibbous
Oct 21
Last Quarter
Oct 27
New
Nov 4
First Quarter
Nov 12
Full

Hourly Weather History & Observations

Time (CDT) Temp. Dew Point Humidity Pressure Visibility Wind Dir Wind Speed Gust Speed Precip Events Conditions
12:15 AM 75.2 °F 74.5 °F 98% 29.90 in 7.0 mi Calm Calm - N/A   Clear
12:35 AM 74.8 °F 74.3 °F 98% 29.90 in 4.0 mi Calm Calm - N/A   Clear
12:55 AM 75.0 °F 74.5 °F 98% 29.90 in 5.0 mi Calm Calm - N/A   Clear
1:15 AM 74.8 °F 74.5 °F 99% 29.90 in 5.0 mi Calm Calm - N/A   Clear
1:35 AM 74.3 °F 73.8 °F 98% 29.90 in 5.0 mi SE 3.5 mph - N/A   Scattered Clouds
1:55 AM 75.4 °F 75.2 °F 99% 29.90 in 10.0 mi Calm Calm - N/A   Scattered Clouds
2:15 AM 75.6 °F 75.2 °F 99% 29.90 in 10.0 mi South 5.8 mph - N/A   Overcast
2:35 AM 76.1 °F 75.4 °F 98% 29.90 in 10.0 mi SW 8.1 mph - N/A   Overcast
2:55 AM 69.3 °F 68.2 °F 96% 29.93 in 0.8 mi North 8.1 mph 38.0 mph N/A Thunderstorm Thunderstorm
3:15 AM 69.4 °F 68.4 °F 96% 29.93 in 10.0 mi NNW 3.5 mph - N/A Thunderstorm Thunderstorm
3:35 AM 69.8 °F 68.9 °F 97% 29.90 in 10.0 mi East 5.8 mph - N/A   Overcast
3:55 AM 69.6 °F 68.9 °F 98% 29.90 in 10.0 mi ESE 3.5 mph - 0.01 in   Overcast
4:15 AM 69.4 °F 68.5 °F 97% 29.91 in 10.0 mi Calm Calm - N/A   Overcast
4:35 AM 69.8 °F 68.4 °F 95% 29.92 in 10.0 mi Calm Calm - N/A   Overcast
4:55 AM 70.7 °F 69.3 °F 95% 29.92 in 10.0 mi WSW 3.5 mph - N/A   Overcast
5:15 AM 70.3 °F 69.3 °F 96% 29.92 in 7.0 mi West 3.5 mph - N/A   Overcast
5:35 AM 70.3 °F 69.3 °F 96% 29.93 in 10.0 mi WSW 5.8 mph - N/A   Mostly Cloudy
7:55 AM 69.8 °F 68.0 °F 94% 29.96 in 5.0 mi NW 3.5 mph - N/A Rain , Thunderstorm Light Thunderstorms and Rain
8:55 AM 69.8 °F 68.0 °F 94% 29.99 in 4.0 mi Calm Calm - N/A Rain Light Rain
9:50 AM 69.8 °F 68.0 °F 94% 30.00 in 7.0 mi North 5.8 mph - N/A   Overcast
10:55 AM 71.6 °F 69.8 °F 94% 30.02 in 7.0 mi North 8.1 mph - N/A   Overcast
12:50 PM 73.4 °F 69.8 °F 88% 30.02 in 7.0 mi NNE 12.7 mph 18.4 mph N/A   Overcast
1:45 PM 66.2 °F 64.4 °F 94% 30.03 in 7.0 mi NNE 17.3 mph 24.2 mph N/A   Overcast
2:55 PM 66.2 °F 60.8 °F 83% 30.02 in 10.0 mi North 12.7 mph 21.9 mph N/A   Overcast
4:00 PM 66.2 °F 60.8 °F 83% 30.00 in 10.0 mi North 17.3 mph 21.9 mph N/A   Overcast
4:45 PM 66.2 °F 57.2 °F 73% 30.00 in 10.0 mi North 13.8 mph 19.6 mph N/A   Overcast
5:50 PM 66.2 °F 59.0 °F 78% 29.99 in 10.0 mi North 16.1 mph 20.7 mph N/A   Overcast
6:45 PM 64.4 °F 59.0 °F 83% 30.02 in 10.0 mi North 16.1 mph 23.0 mph N/A   Overcast
8:45 PM 62.6 °F 57.2 °F 82% 30.06 in 10.0 mi NNE 3.5 mph - N/A   Clear
9:55 PM 60.8 °F 55.4 °F 82% 30.07 in 10.0 mi NE 4.6 mph - N/A   Clear
10:15 PM 60.8 °F 54.3 °F 79% 30.08 in 7.0 mi NNE 6.9 mph - N/A   Clear
10:35 PM 60.3 °F 54.3 °F 81% 30.07 in 10.0 mi NNE 8.1 mph - N/A   Clear
10:55 PM 59.9 °F 53.8 °F 80% 30.07 in 10.0 mi NNE 8.1 mph - N/A   Clear
11:15 PM 59.5 °F 53.6 °F 81% 30.08 in 7.0 mi NNE 6.9 mph - N/A   Clear
11:35 PM 59.0 °F 53.6 °F 82% 30.08 in 10.0 mi NNE 9.2 mph 16.1 mph N/A   Clear
11:55 PM 58.5 °F 53.6 °F 84% 30.08 in 10.0 mi NNE 9.2 mph 17.3 mph N/A   Clear